Tracking 19709 objects as of 17-Jun-2019
HD Live streaming from Space Station
objects crossing your sky now

ARIANE 2 DEB

Track ARIANE 2 DEB now!
10-day predictions


NORAD ID: 33584
Int'l Code: 1989-027E
Perigee: 435.0 km
Apogee: 21,996.4 km
Inclination: 5.9 °
Period: 386.8 minutes
Semi major axis: 17586 km
RCS: 0.3666 m2 (medium)
Launch date: April 2, 1989
Source: France (FR)
Launch site: FRENCH GUIANA (FRGUI)

Note: This is SATELLITE DEBRIS
aabbcc
Your satellite tracking list
Your tracking list is empty




NASA's NSSDC Master Catalog

Two Line Element Set (TLE):
1 33584U 89027E   19168.08116220 -.00000071  00000-0  50548-4 0  9999
2 33584   5.9166 156.1223 6130017 166.2341 224.1191  3.72242942265304
Source of the keplerian elements: AFSPC